Вернуться в каталог

FENGYUN 1C DEB

АктивенSSO
NORAD 29938·DEBRIS·🇨🇳 China

Запущен May 10, 1999 с Taiyuan Satellite Launch Center

Loading…

Ближайшие Пролёты (ближайшие 24 часа)

TLE

СвежийSource: Space-Track

Эпоха: Sep 14, 2026, 09:41 UTC

1 29938U 99025JL  26257.40390535 -.00000011  00000-0  19106-4 0  9991
2 29938  98.8248 245.7207 0032342 253.6151 270.8928 14.07588198  9327

Отслеживайте FENGYUN 1C DEB в реальном времени с AllMySat

Download on the App Store